• en Suisse
  • Liste des pays
  • À 7 jours
  • Température de l'eau
  • Carte satellitaire
  • Carte météo
  • Widgets météo
  • user-avatar
    Se connecter

    Météo par heure à Malaya Kamenka

    Ce jour, 21 Septembre, Vendredi

    Heure Température Précipitation Vent Pression Humidité
    00:00 +19°C° 0 mm 1 m/s 747 mmHg 89%
    01:00 +19°C° 0 mm 1 m/s 747 mmHg 90%
    02:00 +18°C° 0 mm 1 m/s 747 mmHg 90%
    03:00 +17°C° 0 mm 2 m/s 747 mmHg 90%
    04:00 +17°C° 0 mm 2 m/s 747 mmHg 90%
    05:00 +17°C° 0 mm 2 m/s 747 mmHg 90%
    06:00 +17°C° 0 mm 2 m/s 747 mmHg 86%
    07:00 +18°C° 0 mm 2 m/s 747 mmHg 81%
    08:00 +19°C° 0 mm 2 m/s 747 mmHg 77%
    09:00 +21°C° 0 mm 3 m/s 747 mmHg 70%
    10:00 +22°C° 0 mm 3 m/s 747 mmHg 63%
    11:00 +25°C° 0 mm 3 m/s 747 mmHg 56%
    12:00 +26°C° 0 mm 4 m/s 746 mmHg 53%
    13:00 +26°C° 0 mm 4 m/s 746 mmHg 51%
    14:00 +27°C° 0 mm 4 m/s 746 mmHg 48%
    15:00 +26°C° 0 mm 4 m/s 745 mmHg 53%
    16:00 +25°C° 0 mm 3 m/s 745 mmHg 58%
    17:00 +24°C° 0 mm 3 m/s 745 mmHg 63%
    18:00 +22°C° 0 mm 3 m/s 744 mmHg 65%
    19:00 +21°C° 0 mm 3 m/s 744 mmHg 67%
    20:00 +20°C° 0 mm 4 m/s 744 mmHg 70%
    21:00 +19°C° 0 mm 4 m/s 744 mmHg 69%
    22:00 +19°C° 0 mm 4 m/s 743 mmHg 67%
    23:00 +19°C° 0 mm 4 m/s 743 mmHg 66%

    Demain, 22 Septembre, Samedi

    Heure Température Précipitation Vent Pression Humidité
    00:00 +18°C° 0 mm 4 m/s 743 mmHg 66%
    01:00 +17°C° 0 mm 5 m/s 742 mmHg 66%
    02:00 +16°C° 0 mm 5 m/s 742 mmHg 67%
    03:00 +16°C° 0 mm 5 m/s 741 mmHg 68%
    04:00 +16°C° 0 mm 5 m/s 741 mmHg 69%
    05:00 +15°C° 0 mm 5 m/s 741 mmHg 70%
    06:00 +16°C° 0 mm 5 m/s 741 mmHg 68%
    07:00 +16°C° 0 mm 5 m/s 741 mmHg 67%
    08:00 +17°C° 0 mm 5 m/s 741 mmHg 66%
    09:00 +17°C° 0 mm 5 m/s 741 mmHg 67%
    10:00 +17°C° 0 mm 5 m/s 741 mmHg 68%
    11:00 +17°C° 0 mm 5 m/s 742 mmHg 68%
    12:00 +15°C° 0.2 mm 5 m/s 742 mmHg 70%
    13:00 +14°C° 0.2 mm 4 m/s 742 mmHg 72%
    14:00 +12°C° 0.2 mm 4 m/s 742 mmHg 74%
    15:00 +12°C° 1.1 mm 3 m/s 743 mmHg 79%
    16:00 +11°C° 1.1 mm 3 m/s 743 mmHg 84%
    17:00 +11°C° 1.1 mm 3 m/s 743 mmHg 89%
    18:00 +11°C° 0.4 mm 3 m/s 743 mmHg 89%
    19:00 +10°C° 0.4 mm 3 m/s 743 mmHg 89%
    20:00 +10°C° 0.4 mm 3 m/s 743 mmHg 89%
    21:00 +10°C° 0 mm 3 m/s 743 mmHg 89%
    22:00 +10°C° 0 mm 3 m/s 743 mmHg 90%
    23:00 +10°C° 0 mm 3 m/s 743 mmHg 90%

    Après-demain, 23 Septembre, Dimanche

    Heure Température Précipitation Vent Pression Humidité
    00:00 +9°C° 0 mm 3 m/s 743 mmHg 91%
    01:00 +9°C° 0 mm 3 m/s 743 mmHg 92%
    02:00 +8°C° 0 mm 3 m/s 742 mmHg 93%
    03:00 +8°C° 0 mm 3 m/s 742 mmHg 93%
    04:00 +7°C° 0 mm 3 m/s 742 mmHg 93%
    05:00 +7°C° 0 mm 3 m/s 742 mmHg 94%
    06:00 +8°C° 0 mm 3 m/s 742 mmHg 91%
    07:00 +8°C° 0 mm 3 m/s 742 mmHg 88%
    08:00 +8°C° 0 mm 4 m/s 742 mmHg 85%
    09:00 +10°C° 0 mm 4 m/s 742 mmHg 79%
    10:00 +12°C° 0 mm 5 m/s 742 mmHg 73%
    11:00 +13°C° 0 mm 6 m/s 742 mmHg 67%
    12:00 +13°C° 0.1 mm 6 m/s 742 mmHg 67%
    13:00 +13°C° 0.1 mm 6 m/s 742 mmHg 67%
    14:00 +12°C° 0.1 mm 7 m/s 742 mmHg 66%
    15:00 +11°C° 0 mm 6 m/s 742 mmHg 67%
    16:00 +11°C° 0 mm 6 m/s 742 mmHg 68%
    17:00 +12°C° 0 mm 5 m/s 742 mmHg 68%
    18:00 +10°C° 0 mm 5 m/s 742 mmHg 72%
    19:00 +10°C° 0 mm 4 m/s 742 mmHg 75%
    20:00 +8°C° 0 mm 4 m/s 742 mmHg 78%
    21:00 +8°C° 0 mm 4 m/s 742 mmHg 80%
    22:00 +8°C° 0 mm 3 m/s 742 mmHg 81%
    23:00 +8°C° 0 mm 3 m/s 742 mmHg 83%

    24 Septembre, Lundi

    Heure Température Précipitation Vent Pression Humidité
    00:00 +8°C° 0 mm 3 m/s 742 mmHg 84%
    01:00 +8°C° 0 mm 3 m/s 742 mmHg 84%
    02:00 +7°C° 0 mm 2 m/s 741 mmHg 85%
    03:00 +7°C° 0 mm 2 m/s 741 mmHg 84%
    04:00 +7°C° 0 mm 2 m/s 740 mmHg 83%
    05:00 +7°C° 0 mm 2 m/s 740 mmHg 82%
    06:00 +8°C° 0.1 mm 3 m/s 739 mmHg 80%
    07:00 +8°C° 0.1 mm 3 m/s 738 mmHg 77%
    08:00 +8°C° 0.1 mm 4 m/s 737 mmHg 74%
    09:00 +8°C° 1.4 mm 5 m/s 736 mmHg 79%
    10:00 +8°C° 1.4 mm 7 m/s 735 mmHg 84%
    11:00 +6°C° 1.4 mm 8 m/s 734 mmHg 88%
    12:00 +7°C° 2.9 mm 8 m/s 733 mmHg 89%
    13:00 +7°C° 2.9 mm 8 m/s 731 mmHg 90%
    14:00 +7°C° 2.9 mm 8 m/s 730 mmHg 91%
    15:00 +7°C° 1 mm 8 m/s 729 mmHg 91%
    16:00 +9°C° 1 mm 8 m/s 727 mmHg 91%
    17:00 +10°C° 1 mm 8 m/s 726 mmHg 91%
    18:00 +10°C° 0.7 mm 7 m/s 725 mmHg 92%
    19:00 +10°C° 0.7 mm 6 m/s 724 mmHg 93%
    20:00 +12°C° 0.7 mm 5 m/s 723 mmHg 94%
    21:00 +10°C° 0.6 mm 5 m/s 723 mmHg 94%
    22:00 +11°C° 0.6 mm 4 m/s 722 mmHg 94%
    23:00 +11°C° 0.6 mm 4 m/s 722 mmHg 94%

    25 Septembre, Mardi

    Heure Température Précipitation Vent Pression Humidité
    00:00 +9°C° 1 mm 5 m/s 723 mmHg 94%
    01:00 +9°C° 1 mm 6 m/s 723 mmHg 93%
    02:00 +8°C° 1 mm 7 m/s 724 mmHg 93%
    03:00 +7°C° 1.5 mm 8 m/s 725 mmHg 91%
    04:00 +6°C° 1.5 mm 10 m/s 726 mmHg 88%
    05:00 +6°C° 1.5 mm 11 m/s 727 mmHg 86%
    06:00 +4°C° 0.8 mm 12 m/s 728 mmHg 85%
    07:00 +4°C° 0.8 mm 12 m/s 730 mmHg 83%
    08:00 +4°C° 0.8 mm 12 m/s 731 mmHg 82%
    09:00 +4°C° 0.5 mm 12 m/s 732 mmHg 81%
    10:00 +4°C° 0.5 mm 12 m/s 734 mmHg 80%
    11:00 +3°C° 0.5 mm 12 m/s 735 mmHg 79%
    12:00 +4°C° 0.2 mm 11 m/s 736 mmHg 73%
    13:00 +6°C° 0.2 mm 11 m/s 737 mmHg 66%
    14:00 +6°C° 0.2 mm 11 m/s 738 mmHg 60%
    15:00 +6°C° 0 mm 10 m/s 739 mmHg 60%
    16:00 +6°C° 0 mm 9 m/s 739 mmHg 60%
    17:00 +7°C° 0 mm 8 m/s 740 mmHg 60%
    18:00 +6°C° 0 mm 7 m/s 740 mmHg 63%
    19:00 +5°C° 0 mm 6 m/s 741 mmHg 65%
    20:00 +5°C° 0 mm 5 m/s 741 mmHg 68%
    21:00 +5°C° 0 mm 5 m/s 741 mmHg 71%
    22:00 +5°C° 0 mm 5 m/s 741 mmHg 73%
    23:00 +4°C° 0 mm 4 m/s 741 mmHg 76%

    26 Septembre, Mercredi

    Heure Température Précipitation Vent Pression Humidité
    00:00 +4°C° 0 mm 4 m/s 742 mmHg 79%
    01:00 +3°C° 0 mm 4 m/s 742 mmHg 82%
    02:00 +3°C° 0 mm 3 m/s 742 mmHg 84%
    03:00 +3°C° 0 mm 3 m/s 742 mmHg 85%
    04:00 +2°C° 0 mm 3 m/s 743 mmHg 85%
    05:00 +2°C° 0 mm 3 m/s 743 mmHg 86%
    06:00 +1°C° 0 mm 4 m/s 744 mmHg 80%
    07:00 +2°C° 0 mm 5 m/s 745 mmHg 74%
    08:00 +3°C° 0 mm 6 m/s 745 mmHg 68%
    09:00 +4°C° 0 mm 6 m/s 746 mmHg 62%
    10:00 +5°C° 0 mm 6 m/s 746 mmHg 56%
    11:00 +6°C° 0 mm 7 m/s 747 mmHg 50%
    12:00 +8°C° 0 mm 7 m/s 747 mmHg 49%
    13:00 +8°C° 0 mm 7 m/s 747 mmHg 47%
    14:00 +8°C° 0 mm 7 m/s 748 mmHg 46%
    15:00 +8°C° 0 mm 5 m/s 748 mmHg 50%
    16:00 +7°C° 0 mm 4 m/s 748 mmHg 54%
    17:00 +8°C° 0 mm 3 m/s 748 mmHg 58%
    18:00 +5°C° 0 mm 3 m/s 749 mmHg 62%
    19:00 +5°C° 0 mm 2 m/s 749 mmHg 66%
    20:00 +4°C° 0 mm 2 m/s 750 mmHg 70%
    21:00 +3°C° 0 mm 2 m/s 750 mmHg 71%
    22:00 +3°C° 0 mm 2 m/s 751 mmHg 72%
    23:00 +3°C° 0 mm 2 m/s 751 mmHg 73%
    Voir plus